Regional Weather Roundup
Issued by NWS

Home | Current Version | Previous Version | Text Only | Print | Product List | Glossary Off
Versions: 1 2 3 4 5 6 7 8 9 10 11 12 13 14 15 16 17 18 19 20 21 22 23 24 25 26 27 28 29 30 31 32 33 34 35 36 37 38 39 40 41 42 43 44 45 46 47 48 49 50

000
ASUS43 KMPX 301201
RWRMN
WEATHER ROUNDUP FOR MINNESOTA
NATIONAL WEATHER SERVICE TWIN CITIES/CHANHASSEN MN
700 AM CDT SAT AUG 30 2014


NOTE: "FAIR" INDICATES FEW OR NO CLOUDS BELOW 12,000 FEET WITH NO
SIGNIFICANT WEATHER AND/OR OBSTRUCTIONS TO VISIBILITY. N/A MEANS
CURRENT SKY AND/OR WEATHER CONDITIONS ARE NOT AVAILABLE.

MNZ060>063-068>070-301300-
   Twin Cities Metro

CITY           SKY/WX    TMP DP  RH WIND       PRES   REMARKS
TWIN CITIES    CLOUDY    67  65  93 N10       29.81R
6HR MIN TEMP:  67; 6HR MAX TEMP:  68; 6HR PCP:  0.36;

ST PAUL        CLOUDY    67  65  93 NW7       29.80R
CRYSTAL        CLOUDY    68  64  87 NW8       29.80R
BLAINE         CLOUDY    66  66 100 NW7       29.81S
LAKEVILLE      CLOUDY    64  64 100 NW7       29.81R
EDEN PRAIRIE   MOCLDY    67  65  93 N7        29.81R
6HR MIN TEMP:  67; 6HR MAX TEMP:  70; 6HR PCP:  0.54;

SOUTH ST PAUL  CLOUDY    67  65  91 N7        29.80R
LAKE ELMO      CLOUDY    64  64 100 NW10      29.81R
$$
MNZ001>005-007-008-013>017-022>024-027-028-301300-
   Northwest Minnesota

CITY           SKY/WX    TMP DP  RH WIND       PRES   REMARKS
BEMIDJI        CLOUDY    57  54  89 N8G17     29.90R
HALLOCK        CLEAR     45  43  93 NW6       29.96S
ROSEAU         CLEAR     46  43  87 N5        29.95S
WARROAD        CLEAR     48  45  87 N6        29.95S
THIEF RVR FALL CLEAR     50  46  87 N7        29.94S
CROOKSTON      CLEAR     48  46  93 N5        29.95S
FOSSTON        PTCLDY    54  52  94 N10       29.92S
DETROIT LAKES  CLOUDY    59  57  94 N7        29.91R
MOORHEAD       CLOUDY    55  55 100 N10       29.93R
PARK RAPIDS    CLOUDY    59  56  89 N9        29.89R
MAHNOMEN       CLOUDY    56  55  96 N9        29.90S
$$
MNZ006-009>011-018-025>026-301300-
   North Central Minnesota

CITY           SKY/WX    TMP DP  RH WIND       PRES   REMARKS
BAUDETTE       CLEAR     54  52  93 N6        29.93R
FLAG ISLAND    CLOUDY    57  54  88 NE7       29.94R
INTL FALLS     CLOUDY    58  53  84 NE10      29.91R
6HR MIN TEMP:  57; 6HR MAX TEMP:  59;

WASKISH        CLOUDY    55  54  94 N6        29.92S
BIG FORK       CLOUDY    57  55  94 N3        29.90R
LONGVILLE      CLOUDY    59  59 100 N3        29.87R FOG
GRAND RAPIDS   CLOUDY    59  57  94 N8        29.87R
CRANE LAKE     CLOUDY    57  54  88 N5        29.90R
ORR            CLOUDY    55  54  94 CALM      29.86R
COOK           CLOUDY    57  55  94 CALM      29.88R
WALKER         CLOUDY    56  55  96 CALM      29.89R
$$
MNZ012-019>021-037-301300-
   Northeast Minnesota

CITY           SKY/WX    TMP DP  RH WIND       PRES   REMARKS
DULUTH         MOCLDY    61  58  90 N7        29.84R
6HR MIN TEMP:  60; 6HR MAX TEMP:  64;

ELY            CLOUDY    59  57  94 N3        29.86R
HIBBING        CLOUDY    62  59  90 N8        29.87R
EVELETH        CLOUDY    59  59 100 N5        29.87R
DULUTH HARBOR  MOCLDY    63  61  94 N6        29.83R
TWO HARBORS    MOCLDY    57  54  88 CALM      29.82R
SILVER BAY     MOCLDY    55  55 100 CALM      29.82R
GRAND MARAIS     N/A     60  59  96 NE3       29.81S
G MARAIS ARPRT CLOUDY    57  54  88 N6        29.85S
$$
MNZ029>031-032-039>041-046>048-054>057-064-301300-
   West Central Minnesota

CITY           SKY/WX    TMP DP  RH WIND       PRES   REMARKS
FERGUS FALLS   CLOUDY    61  57  88 N7        29.89R
WHEATON        CLOUDY    57  54  88 NW10      29.92R
MORRIS         CLOUDY    61  61 100 NW12      29.88R
ALEXANDRIA     CLOUDY    65  63  93 N6        29.88R
ELBOW LAKE     CLOUDY    59  59 100 N10       29.88S FOG
WADENA         CLOUDY    59  57  94 N7        29.88R
GLENWOOD       FOG       64  63  94 W9        29.87R VSB 3/4
APPLETON       CLOUDY    63  59  88 NW9       29.88R
BENSON         CLOUDY    61  61 100 N9        29.88R FOG
ORTONVILLE     CLOUDY    61  57  88 N8        29.90R
MADISON        CLEAR     64  61  88 NW9       29.89R
WILLMAR        FOG       64  63  94 W8        29.87R VSB 1/2
$$
MNZ033>034-036-042>043-049>051-058-059-301300-
   Central Minnesota

CITY           SKY/WX    TMP DP  RH WIND       PRES   REMARKS
ST CLOUD       CLOUDY    67  65  93 CALM      29.84R
6HR MIN TEMP:  65; 6HR MAX TEMP:  70;

SAUK CENTRE    CLOUDY    64  64 100 N6        29.85S
PAYNESVILLE    LGT RAIN  63  63 100 CALM      29.85R
AITKIN         CLOUDY    64  59  82 CALM      29.84R HAZE
PINE RIVER     CLOUDY    61  61 100 N7        29.90S FOG
BRAINERD       CLOUDY    63  63 100 N7        29.85R FOG
STAPLES        CLOUDY    61  59  94 N7        29.87R FOG
LONG PRAIRIE   CLOUDY    63  63 100 NW6       29.86R
LITTLE FALLS   CLOUDY    64  63  94 CALM      29.84S
LITCHFIELD     CLOUDY    66  66 100 NW5       29.85R
BUFFALO        CLOUDY    66  64  90 CALM      29.84R
MAPLE LAKE     CLOUDY    66  66  97 CALM      29.85R
$$
MNZ037-044-045-052-053-301300-
   East Central Minnesota

CITY           SKY/WX    TMP DP  RH WIND       PRES   REMARKS
PRINCETON      MOCLDY    64  63  94 CALM      29.83R
MORA           PTCLDY    61  59  94 CALM      29.85R
CAMBRIDGE      PTCLDY    66  57  72 NW3       29.81R
RUSH CITY      CLOUDY    64  62  94 N3        29.82R
MOOSE LAKE     CLOUDY    61  59  94 N3        29.82R
HINCKLEY       CLOUDY    63  63 100 N5        29.82R
CLOQUET        CLOUDY    61  57  88 NW5       29.84R
MCGREGOR       CLOUDY    63  61  94 CALM      29.85R
$$
MNZ071>073-080-081-089-090-097-098-301300-
   Southwest Minnesota

CITY           SKY/WX    TMP DP  RH WIND       PRES   REMARKS
MONTEVIDEO     CLOUDY    61  61 100 NW7       29.89R FOG
GRANITE FALLS  CLOUDY    61  62 100 W8        29.89R FOG
CANBY          CLOUDY    60  59  97 NW9       29.91R
MARSHALL       CLOUDY    61  57  88 NW14      29.88R
REDWOOD FALLS  CLOUDY    64  64 100 NW14      29.86R FOG
OLIVIA         CLOUDY    63  61  94 NW7       29.85R FOG
PIPESTONE      CLOUDY    63  63 100 N7        29.91R FOG
WINDOM         CLOUDY    64  63  94 NW12      29.88R FOG
WORTHINGTON    CLOUDY    64  63  94 N9        29.90R
JACKSON        CLOUDY    64  63  94 NW6       29.88R FOG
TRACY          FOG       62  61  97 NW9       29.89R VSB 1
SLAYTON        CLOUDY    61  61 100 CALM      29.91R FOG
$$
MNZ065>067-074>077-082>085-091>093-301300-
   South Central Minnesota

CITY           SKY/WX    TMP DP  RH WIND       PRES   REMARKS
MANKATO        CLOUDY    66  63  88 N5        29.83R
NEW ULM        RAIN      66  66 100 NW7       29.84R
ST JAMES       LGT RAIN  66  64  94 NW7       29.86R
FAIRMONT       CLOUDY    63  55  77 NW10      29.85R
GLENCOE        MOCLDY    67  65  91 NW5       29.83R
FARIBAULT      CLOUDY    70  64  83 NW6       29.81R
OWATONNA       MOCLDY    68  66  94 NW7       29.81R FOG
WASECA         CLOUDY    64  61  88 NW7       29.84R FOG
ALBERT LEA     CLOUDY    66  66 100 W6        29.82R FOG
$$
MNZ078>079-086>088-094>096-301300-
   Southeast Minnesota

CITY           SKY/WX    TMP DP  RH WIND       PRES   REMARKS
ROCHESTER      CLOUDY    66  64  93 NW8       29.81R
6HR MIN TEMP:  65; 6HR MAX TEMP:  66; 6HR PCP:  0.05;

RED WING       CLOUDY    66  66 100 NW3       29.77R
STANTON        CLOUDY    68  66  92 NW8       29.79R FOG
DODGE CENTER   CLOUDY    66  66 100 NW6       29.81R FOG
WINONA         DRIZZLE   70  68  94 CALM      29.76R
AUSTIN         LGT RAIN  66  66 100 NW8       29.81R
PRESTON        CLOUDY    65  65 100 CALM      29.79R
$$
ABBREVIATIONS USED IN REMARKS
   TC - TEMPERATURES IN CELSIUS
  WCI - WIND CHILL INDEX
   HX - HEAT INDEX
  VSB - VISIBILITY
$$



USA.gov is the U.S. government's official web portal to all federal, state and local government web resources and services.